Lapse_Rate
1.0 0.8 0.7 0.4 0.6 0.7 0.6 0.7 0.2 -0.1 0.3 0.9 0.1 -0.0 -0.6 -0.7 -1.0 2.2 4.2 6.4 5.2 4.4 3.3 7.8 8.4 9.0 9.1 8.5 8.6 8.5 6.5 6.5 6.5 6.5 6.5 7.3 6.6 7.8 8.1 7.6 7.8 8.1 8.0 8.6 7.0
0.7 1.0 1.1 1.3 0.9 0.8 0.7 0.8 0.7 0.2 0.8 1.2 0.1 -0.3 -0.9 -0.9 1.7 3.8 5.9 4.1 2.2 3.2 8.5 8.8 8.4 8.7 8.1 7.9 8.0 7.0 6.5 6.5 6.6 6.6 6.5 7.1 7.0 7.3 7.1 7.3 7.3 7.7 8.5 8.1 6.0
0.8 0.8 1.0 1.4 1.3 0.8 0.7 0.7 0.7 0.4 1.2 1.2 0.1 -0.3 -0.6 -0.5 4.3 8.4 3.6 2.6 0.9 3.2 9.6 9.3 9.0 8.4 7.4 7.8 7.5 7.0 6.5 6.5 6.8 7.2 7.2 7.0 7.0 7.8 7.2 6.5 7.4 7.4 8.2 6.7 6.3
0.6 0.6 0.9 1.1 1.2 0.9 0.7 0.7 0.5 0.8 1.6 1.0 0.1 -0.3 -0.1 2.0 6.5 9.2 0.9 0.2 0.3 5.7 8.8 8.8 8.5 7.5 6.8 6.5 7.5 6.5 7.0 7.0 7.1 7.4 7.2 6.7 7.5 7.0 7.4 7.3 8.1 8.4 8.7 8.2 7.4
0.7 0.7 0.7 0.9 1.3 0.9 0.7 0.7 0.7 0.8 1.2 0.8 -0.1 -0.0 2.6 6.5 7.9 5.7 1.3 0.4 4.3 6.9 8.9 8.5 7.8 7.5 6.5 6.8 7.0 6.5 6.6 7.1 7.2 7.4 7.4 7.5 7.0 6.9 7.2 8.0 8.4 8.5 8.5 8.5 8.5
1.0 1.0 0.9 0.8 1.5 0.9 0.9 0.8 0.9 1.0 0.9 0.3 -0.0 0.1 4.2 7.0 8.6 6.2 5.5 5.5 7.4 7.7 8.8 8.7 8.0 8.2 7.2 6.9 6.6 7.0 6.9 6.9 7.2 7.3 7.3 6.8 6.9 7.3 7.5 8.2 8.1 8.2 8.4 8.7 8.7
1.2 1.3 1.2 1.0 1.0 1.5 1.3 1.2 0.8 0.8 0.5 0.1 0.4 2.6 4.7 7.7 8.1 6.7 5.9 7.5 8.0 8.3 8.6 9.0 8.9 8.0 7.7 6.5 7.6 7.1 6.5 6.5 6.7 7.1 6.6 7.3 6.5 6.5 7.6 8.1 7.9 8.1 8.4 8.6 8.8
1.5 1.6 1.4 1.2 1.1 1.0 0.8 0.9 0.2 1.1 0.6 -0.0 0.3 2.3 7.4 7.5 7.4 6.5 7.4 6.8 6.7 8.5 9.2 8.9 9.0 8.2 7.6 7.7 7.0 6.5 6.5 6.5 6.5 6.7 7.0 6.9 6.5 6.6 7.7 7.7 7.6 8.0 8.2 8.4 8.6
1.8 1.7 1.4 1.2 1.2 0.9 0.8 0.6 0.5 0.9 0.3 0.1 2.2 4.1 7.4 6.9 7.0 8.8 7.9 8.7 6.6 7.1 8.5 7.7 8.4 7.6 7.4 6.5 6.5 6.5 6.5 6.5 6.5 6.8 6.5 6.5 6.5 6.8 7.8 7.6 7.5 7.8 8.1 8.3 8.5
2.0 1.8 1.8 1.4 1.1 0.9 0.9 0.4 0.5 1.0 1.5 1.9 4.9 6.5 6.2 7.8 8.1 7.9 8.5 8.4 8.3 7.7 7.9 7.8 7.6 6.5 6.5 6.5 6.5 6.5 6.5 6.5 6.5 6.5 6.5 6.5 6.5 6.5 7.5 7.5 7.4 7.8 8.0 8.2 8.3
2.3 2.0 1.9 1.3 1.0 0.8 1.6 4.8 6.8 7.2 5.0 7.7 7.7 7.6 8.0 8.6 7.3 8.5 8.5 8.6 7.0 7.8 6.5 7.1 6.5 6.5 6.5 6.5 6.5 6.5 6.5 6.5 6.5 6.5 6.5 6.5 6.5 6.5 7.2 7.4 7.3 7.6 7.9 8.0 8.2
2.5 2.3 1.7 1.5 0.9 0.9 3.7 8.2 8.4 7.9 7.1 6.4 7.2 7.6 7.4 7.4 7.5 8.2 8.3 7.5 7.0 6.5 6.6 6.5 6.5 6.5 6.5 6.5 6.5 6.5 6.5 6.5 6.5 6.5 6.5 6.5 6.5 6.5 6.9 7.0 7.4 7.5 7.7 8.0 8.3
2.7 2.3 1.7 1.2 0.7 1.3 4.3 6.3 7.7 7.4 7.1 7.4 7.8 7.9 8.1 7.3 7.3 7.5 8.2 7.7 6.7 6.5 6.5 6.5 6.5 6.6 6.5 6.5 6.5 6.5 6.5 6.5 6.5 6.5 6.5 6.5 6.5 6.5 6.6 7.2 7.5 7.7 7.9 8.1 8.2
2.8 2.4 1.7 0.9 3.0 5.1 4.0 6.0 6.4 6.7 6.5 6.5 6.9 7.6 7.2 8.0 6.9 8.0 8.0 7.7 6.7 6.5 6.5 6.5 6.6 6.5 6.5 6.5 6.5 6.5 6.5 6.5 6.5 6.5 6.5 6.5 6.5 6.5 6.5 6.5 6.8 7.4 7.8 8.0 8.2
2.7 2.3 1.3 2.8 6.1 6.1 8.3 7.6 7.0 7.0 6.5 6.5 6.8 8.3 8.2 7.2 7.3 7.4 7.0 7.8 6.5 6.5 6.5 6.5 6.5 6.5 6.5 6.5 6.5 6.5 6.5 6.5 6.5 6.5 6.5 6.5 6.5 6.5 6.5 6.5 6.5 7.1 7.6 8.0 8.4
2.6 2.3 1.7 2.6 3.8 6.1 6.2 6.9 7.4 6.5 6.5 6.5 6.9 6.6 6.5 7.0 7.0 7.6 7.5 7.8 7.7 6.5 6.5 6.5 7.2 6.6 6.5 6.5 6.5 6.5 6.5 6.5 6.5 6.5 6.5 6.5 6.5 6.5 6.5 6.5 6.5 7.1 7.7 8.0 8.4
2.7 2.3 2.6 4.3 8.1 5.6 6.2 7.8 6.5 6.5 6.5 6.5 6.5 6.5 6.5 6.5 6.5 6.5 6.5 6.5 6.5 6.5 6.5 6.5 6.5 6.6 6.8 6.5 6.5 6.5 6.5 6.5 6.5 6.5 6.5 6.5 6.5 6.5 6.5 6.5 6.6 6.8 7.7 8.1 8.4
2.7 2.2 3.1 5.3 6.3 4.4 6.6 6.7 6.5 6.5 6.5 6.5 6.5 6.5 6.5 6.5 6.5 6.5 6.5 6.5 6.5 6.5 6.5 6.5 6.5 6.5 6.5 6.5 6.5 6.5 6.5 6.5 6.5 6.5 6.5 6.5 6.5 6.5 6.5 7.0 7.3 7.8 8.0 8.2 8.3
2.6 3.9 4.8 4.5 4.0 5.0 7.9 6.5 6.5 6.5 6.5 6.5 6.5 6.5 6.5 6.5 6.5 6.5 6.5 6.5 6.5 6.5 6.5 6.5 6.5 6.5 6.5 6.5 6.5 6.5 6.5 6.5 6.5 6.5 6.5 6.5 6.5 6.5 6.5 6.5 7.0 7.4 7.7 8.0 8.3
6.1 5.2 7.4 5.2 5.5 7.0 6.7 6.5 6.5 6.6 6.5 6.5 6.5 6.5 6.5 6.5 6.5 6.5 6.5 6.5 6.5 6.6 6.8 6.5 6.5 6.5 6.5 6.7 6.7 6.5 6.5 6.5 6.5 6.5 6.5 6.5 6.5 6.5 6.5 6.5 6.5 6.8 7.4 7.9 8.2
8.4 8.0 7.3 5.7 7.2 8.0 6.5 6.5 6.5 7.1 7.0 6.5 6.5 6.5 6.5 6.5 6.5 6.5 6.5 6.5 6.5 6.5 6.7 6.5 6.5 6.5 6.5 6.5 6.5 6.5 6.5 6.5 6.5 6.5 6.5 6.5 6.5 6.5 6.5 6.5 6.5 7.0 7.6 7.8 8.1
8.5 6.5 5.7 6.4 7.0 6.9 6.5 6.5 6.6 6.7 7.2 6.5 6.5 6.5 6.5 6.5 6.5 6.5 6.5 6.5 7.1 6.8 6.5 6.5 6.5 6.5 6.5 6.5 6.5 6.5 6.5 6.5 6.5 6.5 6.5 6.5 6.5 6.5 6.5 6.7 7.0 7.2 7.6 8.1 8.2
7.9 7.5 5.3 6.0 6.5 6.5 6.6 6.5 6.7 6.5 6.5 6.5 6.5 6.5 6.5 6.5 6.5 6.5 6.5 6.9 7.1 6.6 6.5 6.5 6.5 6.5 6.5 6.5 6.5 6.5 6.5 6.5 6.5 6.5 6.5 6.5 6.5 6.5 6.7 6.8 7.2 7.2 7.7 7.9 8.2
8.0 6.5 7.4 7.8 7.6 6.5 6.5 6.5 6.5 7.0 6.6 6.8 6.5 6.6 6.5 6.5 6.5 6.5 6.5 6.5 7.1 6.9 3.7 6.2 6.5 6.5 6.5 6.5 6.5 6.5 6.5 6.5 6.5 6.5 6.5 6.5 6.5 6.5 6.5 6.5 6.9 7.4 7.8 8.1 8.2
8.0 6.7 7.3 6.5 6.6 6.5 6.5 6.5 6.5 6.5 6.8 7.0 6.5 6.5 6.5 6.5 6.5 6.5 6.5 6.5 6.7 4.8 6.8 6.5 6.5 6.5 6.5 6.5 6.5 6.5 6.5 6.5 6.5 6.5 6.5 6.5 6.5 6.5 6.5 6.5 7.0 7.5 7.7 7.8 8.0
7.4 7.0 7.5 7.1 7.0 6.5 6.5 6.5 6.5 6.5 6.5 6.5 6.5 6.5 6.5 6.5 6.5 6.5 6.5 6.5 6.5 6.6 6.5 6.5 6.5 6.5 6.5 6.5 6.5 6.5 6.5 6.5 6.5 6.5 6.5 6.5 6.5 6.5 7.1 7.4 7.2 7.4 7.7 7.7 7.9
5.3 5.1 7.7 6.4 6.5 6.5 6.5 6.5 6.5 6.6 6.8 7.0 6.6 6.5 6.5 6.5 7.1 7.2 7.3 7.1 6.7 6.5 6.5 6.5 6.5 6.5 6.5 6.5 6.5 6.5 6.5 6.5 6.5 6.5 6.5 6.5 6.5 6.5 6.5 6.8 7.2 7.4 7.7 7.7 8.0
Wind_Speed
12 14 14 14 14 16 17 17 14 12 15 14 14 14 14 16 20 6 11 8 4 7 11 9 8 7 5 5 4 3 7 9 11 15 15 9 10 8 13 11 1 2 1 11 16
11 14 15 15 15 16 17 17 15 12 14 13 13 13 13 16 13 14 14 9 6 20 10 9 8 8 6 6 5 8 8 7 4 7 14 19 10 14 9 13 7 5 8 19 16
12 12 14 16 17 16 15 16 14 11 15 12 11 11 12 14 7 4 5 19 19 19 7 7 7 8 8 6 8 9 8 5 6 10 8 14 13 11 16 10 9 12 17 17 16
13 12 14 14 16 15 14 13 12 12 14 11 9 9 11 4 1 4 9 13 20 17 10 10 9 9 7 9 11 8 11 4 1 9 8 6 7 6 13 6 2 7 20 19 18
13 13 13 14 15 14 13 12 10 11 12 9 7 7 6 6 9 5 10 15 15 14 12 11 11 9 11 10 8 14 4 5 6 10 13 6 10 8 6 7 9 16 19 18 17
14 14 14 14 15 13 12 12 10 12 9 7 6 5 5 8 2 5 8 12 11 15 12 11 5 8 3 5 11 4 3 5 3 11 10 10 7 11 4 11 13 19 18 17 17
14 14 14 14 13 13 13 11 8 10 5 5 5 4 6 12 2 7 6 3 8 13 11 11 8 7 2 4 3 8 11 10 6 11 5 10 11 6 4 11 15 16 14 14 14
14 14 14 13 12 11 9 7 3 6 4 4 4 3 7 4 5 10 11 9 7 11 9 2 9 8 6 1 4 4 9 8 6 8 4 11 11 6 6 11 14 15 13 13 14
13 13 13 10 10 7 4 2 1 3 3 2 3 4 7 2 6 5 9 3 7 8 6 3 9 5 5 9 8 7 8 9 9 2 7 7 9 3 9 11 12 13 14 13 13
14 13 12 8 6 4 3 2 6 7 5 3 5 5 8 2 2 3 5 6 3 11 6 5 4 5 6 10 10 8 6 11 12 7 13 9 8 7 8 12 13 13 13 13 13
13 12 10 6 5 8 9 4 4 6 5 8 1 5 5 8 3 5 3 7 4 7 4 6 6 9 14 3 4 3 4 10 8 5 7 4 7 5 7 12 13 12 12 11 10
12 10 7 5 9 12 4 5 4 4 5 18 12 9 12 5 3 5 2 5 2 6 3 6 6 4 5 4 4 5 8 6 5 4 5 8 6 4 5 10 10 11 11 11 10
11 8 5 11 15 6 8 14 1 10 5 4 7 8 5 7 4 6 3 3 10 9 2 5 5 5 6 7 7 4 3 7 5 7 2 9 8 8 4 6 7 7 7 8 10
11 8 13 21 7 5 7 12 18 5 4 7 7 6 5 4 5 1 0 2 1 2 3 3 3 4 7 6 5 6 3 6 10 10 7 8 8 11 8 8 8 9 10 10 10
11 11 24 24 3 6 1 10 4 4 5 10 7 4 5 6 4 4 3 4 6 8 5 4 6 7 5 3 2 4 4 4 4 6 5 9 7 8 8 10 11 11 11 12 13
12 14 22 9 3 8 4 5 5 4 5 8 8 9 10 4 3 4 2 4 3 3 2 5 2 1 3 6 1 10 7 6 3 3 7 4 7 9 5 4 11 12 14 15 14
13 18 20 10 4 3 6 4 5 7 4 8 11 12 12 7 5 7 8 8 7 9 9 6 4 4 3 8 6 6 6 3 3 4 6 2 6 11 3 3 9 17 18 16 14
12 19 16 10 6 6 4 7 8 8 9 2 8 15 12 9 5 4 8 9 4 8 10 9 6 5 2 3 1 3 4 3 4 3 1 3 5 2 1 1 6 16 17 16 14
17 6 5 8 17 2 7 11 8 6 9 10 10 15 8 8 5 7 6 8 4 4 7 7 4 5 3 2 3 5 4 3 2 1 3 4 4 8 3 5 10 15 17 17 16
8 6 10 12 17 5 7 11 9 3 5 11 13 13 14 13 10 10 9 4 4 2 3 4 4 2 4 2 6 4 9 3 3 3 4 4 5 2 6 9 12 16 17 17 16
8 6 6 18 10 7 10 12 7 7 6 11 13 9 11 9 9 11 10 4 3 4 1 5 3 5 3 7 6 4 5 0 1 2 2 3 1 3 2 5 13 16 17 18 16
8 9 9 12 9 9 12 9 4 7 5 6 7 7 12 11 7 8 10 2 4 4 5 2 1 4 6 3 1 3 6 9 4 4 1 2 3 3 1 3 8 13 15 16 13
9 5 2 5 12 10 7 5 5 6 9 9 7 6 5 9 6 5 6 2 3 5 7 6 3 4 5 5 5 7 9 5 4 1 6 3 2 3 3 5 8 10 12 12 13
9 7 4 6 4 16 13 12 8 2 5 4 5 4 7 6 1 7 8 2 2 2 3 3 3 7 10 2 0 6 11 12 11 4 5 9 10 7 8 8 8 11 13 15 15
7 7 10 12 10 13 15 15 11 7 4 6 4 8 8 5 6 6 6 6 3 5 2 3 6 4 2 0 3 5 8 13 16 14 8 12 11 11 7 9 10 10 12 14 15
8 5 4 14 12 13 11 11 15 6 5 7 8 10 7 5 7 10 10 7 5 6 5 2 3 3 3 3 3 7 10 11 15 16 15 19 20 16 9 7 8 11 13 16 15
3 2 9 4 10 11 11 11 14 10 3 3 12 8 6 4 5 8 7 8 5 7 6 4 6 4 2 2 3 6 16 18 13 13 15 14 16 3 7 10 11 12 14 15 16
Wind_Direction
303 305 307 305 309 310 312 309 306 309 307 307 317 316 320 318 311 251 252 248 181 151 191 143 160 177 205 200 224 244 235 190 145 142 123 133 131 158 149 238 212 122 13 135 144
298 302 305 305 307 307 308 305 305 310 303 301 313 316 322 326 303 262 248 211 164 166 170 173 172 174 195 203 198 230 240 187 247 141 163 185 180 175 184 194 188 146 106 126 150
288 289 293 298 303 303 300 301 303 308 298 301 310 317 321 324 281 244 111 207 188 189 212 190 167 194 213 200 195 198 247 142 181 185 160 178 200 160 217 205 217 189 154 155 150
279 284 291 295 302 302 299 296 302 303 296 302 312 319 320 287 277 49 333 196 179 193 187 178 180 188 207 203 199 233 238 256 211 180 138 221 170 208 226 61 224 179 159 154 158
280 285 287 289 298 295 293 292 294 295 296 300 311 323 296 242 258 69 87 135 160 185 199 192 199 207 198 208 192 229 225 192 229 184 216 177 186 204 178 66 113 138 154 161 163
278 283 287 286 292 287 284 283 289 290 285 297 300 316 252 253 21 160 126 153 184 192 202 209 227 239 281 214 218 178 159 121 220 176 174 181 156 201 106 122 133 150 161 163 166
274 283 288 287 283 282 276 279 290 286 284 279 291 275 251 255 331 177 177 240 208 208 211 218 227 224 262 192 156 136 119 127 151 169 142 158 159 70 121 147 147 155 160 163 171
271 282 289 293 287 280 274 277 280 258 269 269 280 254 259 241 265 243 248 252 217 213 234 232 217 246 266 76 131 174 163 150 147 168 149 232 146 59 175 167 157 160 166 171 172
265 277 283 290 284 271 258 245 182 241 221 290 214 256 258 243 240 259 197 225 149 173 199 83 177 204 171 193 171 196 175 157 145 256 159 239 136 93 174 178 167 175 178 178 169
262 273 282 285 267 214 161 154 153 201 181 205 253 262 243 170 326 287 189 184 145 139 130 200 198 212 194 200 193 158 152 179 160 143 183 189 126 133 174 182 185 185 189 184 178
260 270 278 261 197 157 146 155 205 198 206 236 125 281 306 327 212 204 170 169 147 210 224 190 221 198 177 231 40 181 171 149 117 132 172 182 146 117 173 201 188 191 188 184 188
252 263 263 207 161 160 236 239 276 354 257 226 248 274 274 291 270 213 211 213 186 276 191 193 183 98 128 124 136 162 171 141 125 144 231 172 153 126 172 193 208 199 195 186 176
245 246 205 152 138 163 229 232 91 354 258 183 210 248 257 198 240 198 226 167 161 235 244 272 83 137 139 126 139 121 131 157 145 145 112 188 195 189 156 190 198 207 208 194 188
230 224 165 140 156 180 231 241 248 277 251 160 202 227 188 222 215 354 338 261 148 287 70 80 94 137 138 142 277 152 88 138 144 189 195 209 238 186 177 187 201 186 191 181 162
210 197 169 172 101 200 358 205 196 198 206 161 167 109 152 207 135 147 27 203 198 160 244 119 152 145 164 84 301 109 165 132 180 222 237 189 253 125 173 205 190 183 175 163 153
199 190 176 223 250 256 319 167 191 216 227 161 155 171 171 186 149 125 157 78 85 134 155 112 87 32 80 74 115 140 141 126 166 243 247 244 263 272 208 258 164 173 168 159 159
195 180 180 177 194 318 208 209 199 222 131 167 173 177 181 169 159 192 182 169 189 167 170 156 110 112 155 127 150 217 204 234 232 220 256 78 261 263 109 194 188 177 172 170 170
185 173 218 220 218 10 210 212 213 193 193 147 175 172 187 165 180 158 171 180 198 252 171 181 169 178 163 289 182 183 265 237 261 230 256 189 240 103 89 260 187 178 173 172 177
146 180 238 221 222 307 221 208 200 197 179 173 166 175 169 171 203 186 208 184 181 232 209 182 131 131 57 131 283 141 216 32 134 56 270 253 224 218 194 177 180 177 178 182 183
160 181 225 181 176 214 225 223 205 190 169 186 181 194 186 183 188 203 190 155 162 229 283 158 142 158 125 149 66 284 131 183 216 233 244 194 263 267 182 191 187 189 191 189 189
162 192 138 152 156 204 216 205 198 199 190 188 188 179 190 174 204 195 184 146 202 157 235 160 264 146 180 210 200 157 195 184 273 280 280 294 106 77 67 188 198 201 196 196 192
171 203 150 151 178 199 212 203 175 173 174 196 201 170 190 175 172 191 195 237 161 180 181 117 160 183 199 123 298 270 227 205 235 186 223 310 294 153 164 197 204 206 202 203 194
172 169 120 232 190 194 188 197 204 162 185 180 165 184 174 173 174 190 182 82 186 204 172 172 197 194 180 177 189 224 198 200 129 146 211 190 256 175 205 230 217 211 194 196 194
162 181 142 205 242 190 184 189 175 154 157 165 137 138 142 160 114 167 162 143 140 162 44 179 187 239 242 277 204 200 204 203 208 209 226 239 272 200 221 223 215 210 195 193 189
189 188 169 185 203 198 188 181 176 163 194 179 147 193 167 150 159 166 162 147 143 151 133 227 231 214 234 163 234 252 230 209 217 234 224 268 254 270 248 231 230 211 198 193 191
156 159 159 164 180 183 180 199 180 152 183 163 185 160 166 169 199 186 169 188 174 173 180 172 200 187 231 217 265 266 248 238 234 247 251 262 266 276 256 248 210 203 199 201 198
126 113 176 172 179 176 187 172 184 146 73 40 146 137 134 93 71 70 81 83 118 167 163 174 157 164 236 354 276 277 242 227 226 227 237 246 258 212 204 223 217 210 205 205 199